ICEYE-X7 (46496 NORAD) Tracking and Keplerian Element Data

This shows tracking and keplerian element data for the satellite.

Feedback or suggestion? Click here.




ElementValue
Catalog46496
NameICEYE-X7
Epoch Orbit474
Epoch Day304.23938176
Epoch Year2020
RAAN237.4058
Inclination97.6659
Eccentricity0.0016384
Argument of Perigee133.5274
Mean Anonmoly226.7322
Mean Motion15.02871989
Decay Rate1.302E-05
L11 46496U 20068L 20304.23938176 .00001302 00000-0 10140-3 0 9998
L22 46496 97.6659 237.4058 0016384 133.5274 226.7322 15.02871989 4748

Live tracking and technical data element details for ICEYE-X7 (NORAD 46496). ICEYE-X7 can be tracked NOW for your location showing map with azimuth and elevation plus other details from your city location.

Track the satellite on the map from your city or location and see movement details for azimuth, elevation, latitude, longitude, range, height, and movement on the map or in text.







IsCatalogInMostPopularTable: catalog: 46496, numindb: 7
Update: records affected: 1



GetName: 46496 ICEYE-X7

Hit Count: updated at: Sat, 31 Oct 2020 06:59:38 GMT